User: anonymous   Login
Location: Mentone
(34.5413°N, 85.5351°W)
Time: 15:35:33
(UTC-05:00)
Language:

ADEOS Rocket - Orbit

View from above orbital plane
View from above orbital plane
View from above satellite
View from above satellite

Ground track
Ground track

The orbit data is extracted from the following two-line orbital elements,

1 24279U 96046C   16241.53508241 -.00000005  00000-0  41428-4 0  9990
2 24279  98.7089 216.2612 0299472 315.1731 183.0703 13.47056157984845
Epoch (UTC): 28 August 2016 12:50:31
Eccentricity: 0.0299472
inclination: 98.7089°
perigee height: 859 km
apogee height: 1306 km
right ascension of ascending node: 216.2612°
argument of perigee: 315.1731°
revolutions per day: 13.47056157
mean anomaly at epoch: 183.0703°
orbit number at epoch: 98484

The dashed part of the orbit path shows where the satellite is in the earth's shadow,  

DLR